Location: Joffre
(52.3362°N, 113.5373°W)
Time: 03:40:10
(UTC+00:00)

ISS - Visible Passes

Search period start: 07 December 2021 00:00
Search period end: 17 December 2021 00:00
Orbit: 417 x 422 km, 51.6° (Epoch: 06 December)

Date Brightness Start Highest point End Pass type
(mag) Time Alt. Az. Time Alt. Az. Time Alt. Az.
07 Dec -1.8 00:45:19 10° W 00:48:19 29° SSW 00:51:18 10° SSE visible
07 Dec -2.2 23:57:51 10° W 00:01:01 38° SSW 00:04:13 10° SE visible
08 Dec -0.4 01:36:24 10° SW 01:37:08 11° SW 01:37:53 10° SSW visible
09 Dec -0.7 00:47:54 10° WSW 00:49:58 15° SW 00:52:02 10° S visible
10 Dec -0.8 00:00:07 10° W 00:02:46 21° SW 00:05:24 10° SSE visible
12 Dec 0.2 00:03:38 10° SW 00:04:18 10° SW 00:04:58 10° SSW visible
